Weather History for Palmer, AK

Change the Weather History Date:

Thursday, October 11, 2012

  Actual Average Record
Temperature  
Mean Temperature 37 °F -  
Max Temperature 46 °F 45 °F 63 °F (1986)
Min Temperature 28 °F 29 °F 10 °F (1961)
Degree Days  
Heating Degree Days 28    
Moisture  
Dew Point 26 °F    
Average Humidity 65    
Maximum Humidity 96    
Minimum Humidity 35    
Precipitation  
Precipitation 0.00 in - - ()
Sea Level Pressure  
Sea Level Pressure 29.75 in    
Wind  
Wind Speed 9 mph (NE)    
Max Wind Speed 22 mph    
Max Gust Speed 34 mph    
Visibility 10 miles    
Events      
Averages and records for this station are not official NWS values.
T = Trace of Precipitation, MM = Missing Value Source: NWS Daily Summary

Daily Weather History Graph

Daily Weather History Graph

Search for Another Location

Airport:

Trip Planner

Search our weather history database for the weather conditions in past years. The results will help you decide how hot, cold, wet, or windy it might be!

Date:

Astronomy

Oct. 11, 2012 Rise Set
Actual Time 8:30 AM AKDT 6:53 PM AKDT
Civil Twilight 7:46 AM AKDT 7:37 PM AKDT
Nautical Twilight 6:56 AM AKDT 8:28 PM AKDT
Astronomical Twilight 6:04 AM AKDT 9:19 PM AKDT
Moon 3:16 AM AKDT (10/11) 5:26 PM AKDT (10/11)
Length of Visible Light 11h 50m
Length of Day
10h 22m
Waning Crescent, 17% of the Moon is Illuminated
Oct 11
Waning Crescent
Oct 15
New
Oct 21
First Quarter
Oct 29
Full
Nov 6
Last Quarter

Hourly Weather History & Observations

Time (AKDT) Temp. Windchill Dew Point Humidity Pressure Visibility Wind Dir Wind Speed Gust Speed Precip Events Conditions
12:53 AM 45.0 °F 36.6 °F 21.0 °F 39% 29.92 in 10.0 mi NE 21.9 mph 32.2 mph N/A   Clear
1:53 AM 44.1 °F 35.7 °F 18.0 °F 35% 29.90 in 10.0 mi NE 20.7 mph 34.5 mph N/A   Clear
2:53 AM 43.0 °F 36.0 °F 21.0 °F 42% 29.89 in 10.0 mi ENE 13.8 mph 19.6 mph N/A   Clear
3:53 AM 35.1 °F 32.2 °F 33.1 °F 92% 29.88 in 10.0 mi East 3.5 mph - N/A   Clear
4:53 AM 37.9 °F 35.5 °F 28.9 °F 70% 29.86 in 10.0 mi Variable 3.5 mph - N/A   Clear
5:53 AM 32.0 °F - 30.0 °F 92% 29.86 in 10.0 mi Calm Calm - N/A   Clear
6:53 AM 30.0 °F 26.5 °F 28.9 °F 96% 29.84 in 10.0 mi Variable 3.5 mph - N/A   Clear
7:53 AM 28.9 °F - 28.0 °F 96% 29.83 in 10.0 mi Calm Calm - N/A   Clear
8:53 AM 28.0 °F 24.2 °F 26.1 °F 92% 29.81 in 10.0 mi ENE 3.5 mph - N/A   Clear
9:53 AM 32.0 °F 27.5 °F 30.9 °F 96% 29.81 in 10.0 mi East 4.6 mph - N/A   Clear
10:53 AM 37.9 °F 35.5 °F 33.1 °F 83% 29.80 in 10.0 mi SW 3.5 mph - N/A   Clear
12:53 PM 39.9 °F - 33.1 °F 77% 29.77 in 10.0 mi Calm Calm - N/A   Clear
1:53 PM 43.0 °F - 32.0 °F 65% 29.75 in 10.0 mi Calm Calm - N/A   Clear
2:53 PM 45.0 °F 43.5 °F 33.1 °F 63% 29.72 in 10.0 mi South 3.5 mph - N/A   Clear
3:53 PM 46.0 °F - 30.0 °F 54% 29.70 in 10.0 mi Calm Calm - N/A   Clear
4:53 PM 46.9 °F - 25.0 °F 42% 29.67 in 10.0 mi Calm Calm - N/A   Clear
5:53 PM 45.0 °F - 30.9 °F 58% 29.65 in 10.0 mi Calm Calm - N/A   Clear
6:53 PM 39.0 °F 34.8 °F 18.0 °F 43% 29.64 in 10.0 mi NNE 5.8 mph - N/A   Clear
7:53 PM 37.0 °F 34.5 °F 19.0 °F 48% 29.62 in 10.0 mi North 3.5 mph - N/A   Clear
8:53 PM 36.0 °F 32.1 °F 19.9 °F 52% 29.60 in 10.0 mi North 4.6 mph - N/A   Clear
9:53 PM 34.0 °F 31.0 °F 19.9 °F 56% 29.60 in 10.0 mi NNW 3.5 mph - N/A   Clear
10:53 PM 34.0 °F 29.8 °F 18.0 °F 52% 29.58 in 10.0 mi NE 4.6 mph - N/A   Clear
11:53 PM 33.1 °F - 19.9 °F 59% 29.55 in 10.0 mi Calm Calm - N/A   Clear